Home   Weather   Babylon   Past weeks

Flag for USA Past Weather in Babylon, New York, USA — Yesterday and Last 2 Weeks

Now
61 °F

Low clouds.


Feels Like: 61 °F
Forecast: 60 / 65 °F
Wind: 10 mph from Northeast

Location: Republic Airport

Current Time: Oct 1, 2016 at 1:23:21 PM

Latest Report: Oct 1, 2016 at 12:53 PM


Visibility: 10 mi

Pressure: 30.19 "Hg

Humidity: 87%

Dew Point: 57 °F

Location of BabylonLocation

Past Weather in Babylon — Graph

°F

Babylon Temperature Yesterday

Maximum temperature yesterday: 62 °F (at 10:53 AM)
Minimum temperature yesterday: 59 °F (at 5:53 AM)
Average temperature yesterday: 60 °F

High & Low Weather Summary for the Past Weeks

 TemperatureHumidityPressure
High83 °F (Sep 21, 3:53 PM)100% (Sep 21, 2:53 AM)30.38 "Hg (Sep 21, 2:53 AM)
Low49 °F (Sep 26, 3:53 AM)25% (Sep 25, 4:53 PM)29.88 "Hg (Sep 27, 3:53 PM)
Average67 °F75%30.13 "Hg
* Reported Sep 16 11:53 AM — Oct 1 11:53 AM, Babylon, Weather by CustomWeather, © 2016

Note: Actual official high and low records may vary slightly from our data, if they occured in-between our weather recording intervals... More about our weather records

Advertising

Babylon Weather History for the Previous 24 Hours

Scroll right to see more
 ConditionsComfort  
Time TempWeatherWind HumidityBarometerVisibility
11:53 AM
Sat, Oct 1
60 °FLow clouds.13 mph90%30.20 "Hg10 mi
10:53 AM60 °FLow clouds.13 mph90%30.20 "Hg10 mi
9:53 AM59 °FLow clouds.16 mph90%30.20 "Hg10 mi
8:53 AM58 °FFog.13 mph93%30.22 "Hg6 mi
7:53 AM58 °FLow clouds.14 mph93%30.21 "Hg7 mi
6:53 AM58 °FLow clouds.13 mph93%30.20 "Hg10 mi
5:53 AM58 °FLow clouds.13 mph93%30.19 "Hg10 mi
4:53 AM58 °FLow clouds.15 mph93%30.19 "Hg9 mi
3:53 AM59 °FLow clouds.15 mph93%30.19 "Hg10 mi
2:53 AM58 °FLow clouds.14 mph93%30.20 "Hg10 mi
1:53 AM59 °FLow clouds.15 mph93%30.21 "Hg10 mi
12:53 AM59 °FLow clouds.14 mph93%30.21 "Hg8 mi
11:53 PM
Fri, Sep 30
59 °FLow clouds.12 mph93%30.23 "Hg10 mi
10:53 PM59 °FOvercast.12 mph93%30.23 "Hg10 mi
9:53 PM59 °FOvercast.10 mph93%30.24 "Hg10 mi
8:53 PM59 °FMostly cloudy.15 mph93%30.24 "Hg10 mi
7:53 PM59 °FOvercast.14 mph93%30.23 "Hg2 mi
6:53 PM59 °FLight rain. Fog.13 mph93%30.24 "Hg2 mi
6:00 PM59 °FLight rain. Fog.12 mph96%30.23 "Hg2 mi
5:00 PM60 °FFog.15 mph90%30.23 "Hg2 mi
3:58 PM60 °FFog.14 mph90%30.24 "Hg2 mi
3:00 PM60 °FOvercast.15 mph93%30.25 "Hg3 mi
2:04 PM61 °FLight rain. Fog.17 mph90%30.25 "Hg2 mi
1:53 PM61 °FLight rain. Mostly cloudy.17 mph90%30.25 "Hg3 mi
1:02 PM61 °FLight rain. Cloudy.16 mph90%30.27 "Hg3 mi
Weather by CustomWeather, © 2016

See weather overviewHow to use our weather pages